Regional Weather Roundup
Issued by NWS Midland/Odessa, TX

Skip options and go directly to product.
Home | Oldest Version | Previous Version | Current Version | All | Text Only | Save Text | Print | Product List | Glossary Off

Skip product version selection by date and time.   

468
ASUS44 KMAF 301910
RWRMAF
MIDLAND AREA WEATHER ROUNDUP
NATIONAL WEATHER SERVICE MIDLAND TX
200 PM CDT WED JUL 30 2014

...IN SOUTHWEST TEXAS AND SOUTHEAST NEW MEXICO...

CITY           SKY/WX    TMP DP  RH WIND       PRES   REMARKS
ALPINE         SUNNY     94  51  23 S10       30.17F
ANDREWS        FAIR      97  51  21 W10       30.00F
ARTESIA        SUNNY     95  59  30 N6G20     30.03F
BIG SPRING     MOSUNNY  100  55  22 S12G17    29.99F
CARLSBAD       SUNNY    100  52  19 N14G21    29.99F
DRYDEN           N/A     99  53  21 MISG      29.96F
FORT STOCKTON  PTSUNNY   98  49  18 NW7       29.98F
GUAD PASS      SUNNY     91  52  26 W21G30    30.20F
HOBBS          MOSUNNY   95  52  23 W9        30.03F
MARFA          MOSUNNY   90  52  27 CALM      30.17F
MIDLAND AIRPK  SUNNY     97  50  20 SW7       29.99F
MIDLAND INTL   SUNNY     98  55  23 SW8       29.99F
ODESSA         SUNNY     96  50  20 SW9G16    30.00F
PECOS          SUNNY    100  52  19 S5        29.93F
PRESIDIO       FAIR      98  52  21 S7        30.00F
SEMINOLE       SUNNY     97  52  21 N7        30.01F HAZE
SNYDER         MOSUNNY   91  64  39 S16       29.98F
WINK           MOSUNNY  101  50  18 SW10      29.95F
$$
...OTHER STATIONS IN TEXAS...

CITY           SKY/WX    TMP DP  RH WIND       PRES   REMARKS
ABILENE        PTSUNNY   92  63  38 S20G26    29.97F
AMARILLO       PTSUNNY   81  63  54 NW16G26   30.09S
AUSTIN         PTSUNNY   94  64  37 S12G20    29.99F
BROWNSVILLE    MOSUNNY   96  73  47 SE21G26   29.96F HX 105
CORPUS CHRISTI MOSUNNY   95  71  45 SE12G24   29.98F HX 102
DALLAS FTW     PTSUNNY   86  69  56 SE14      30.01F
DEL RIO        SUNNY     98  58  26 SE14G21   29.93F
EL PASO        MOSUNNY   95  54  25 N9        30.07F
HOUSTON INT    PTSUNNY   91  70  49 SE8       30.01F
LUBBOCK        MOSUNNY   91  63  39 NW9       30.03F
SAN ANGELO     MOSUNNY   98  54  22 S16G24    29.96F
SAN ANTONIO    PTSUNNY   93  64  38 SE8       30.00F
WACO           MOSUNNY   91  71  51 S17       30.00F
WICHITA FALLS  NOT AVBL
$$
...OTHER LOCATIONS IN NEW MEXICO...

CITY           SKY/WX    TMP DP  RH WIND       PRES   REMARKS
ALAMAGORDO     MOSUNNY   91  55  29 NW12G18   30.11F
ALBUQUERQUE    MOSUNNY   81  55  40 SW7       30.21F
CANNON AFB     MOSUNNY   81  66  60 NE15      30.13S
CLOVIS         NOT AVBL
HOLLOMAN AFB   MOSUNNY   91  55  29 VRB6      30.09F
ROSWELL        SUNNY     90  68  48 CALM      30.05F
RUIDOSO        MOSUNNY   81  52  36 N10G16    30.32F
SANTA FE       MOSUNNY   78  55  44 CALM      30.25F
TRUTH OR CONSE SUNNY     90  54  29 VRB7      30.14F
TUCUMCARI      MOSUNNY   86  59  39 NE14G25   30.12S
$$

USA.gov is the U.S. government's official web portal to all federal, state and local government web resources and services.